Weather in Mezhevoy

Russia / Chelyabinsk Oblast     55°10′17″N   58°46′59″E
temp.,
°C
wind,
m/s
gust,
m/s
humid.,
%
clouds,
%
prec.,
mm/h
press.,
hPa
HPBL,
m
8 march, mon
mon823:00−17wsw359880 0.2 1011106
02:00−18sw349683 0.1 101182
05:00−19ssw339363 0.1 101127
08:00−15sse2288100 0.0 100865
11:00−8ssw51079100 0.0 10051029
14:00−6sw71482100 0.2 10031258
17:00−5sw8168599 0.3 10021265
20:00−5w8159071 1.1 10021193
9 march, tue
tue923:00−7sw5129184 2.1 1005767
02:00−10ssw349139 0.0 100540
05:00−8se239669 0.8 1003123
08:00−5wsw81591100 1.3 10011375
11:00−7wsw11168491 1.4 10051151
14:00−6w7984100 0.2 10081153
17:00−6wsw5782100 0.3 1010892
20:00−12sw229180 0.0 101121
10 march, wed
wed1023:00−12e129190 0.0 101120
02:00−11e2291100 0.1 100842
05:00−9e3693100 0.4 1005221
08:00−9e2491100 0.3 1001156
11:00−5se3781100 0.3 999495
14:00−4se3490100 0.5 997485
17:00−5wsw469494 1.7 997432
20:00−11ssw379398 2.5 1000201
11 march, thu
thu1123:00−13wnw249799 2.9 1002151
02:00−14nnw6995100 1.1 1004547
05:00−17nw5896100 2.4 1007430
08:00−18nw4797100 0.7 1010447
11:00−18nw4695100 1.3 1012482
14:00−15wnw578591 0.1 1013620
17:00−15wnw7109395 0.3 1014701
20:00−18w61097100 0.4 1016582
12 march, fri
fri1223:00−20wsw61197100 1.0 1017396
02:00−18wsw71296100 0.6 1018491
05:00−18wsw61296100 1.4 1018454
08:00−18wsw71394100 0.5 1020423
11:00−15w71092100 0.7 1022608
14:00−11w7988100 0.2 1023909
17:00−11w71088100 0.4 1024902
20:00−14wsw61293100 0.1 1026410